This is the latest recevied weather packets stored in our database for station/object WC4PEM-4. If no packets are shown the sender has not sent any weather packets the latest 10 day(s).
| Time | Temp. | Humidity | Pressure | Rain* | Wind** | Luminosity | Snow |
|---|---|---|---|---|---|---|---|
| 1787789876 | 22.22° C | 95% | 1018.1 hPa | 32 mm | - | - | - |
| 1787789793 | 22.22° C | 95% | 1018.1 hPa | 32 mm | - | - | - |
| 1787789576 | 22.22° C | 94% | 1018 hPa | 31.5 mm | - | - | - |
| 1787789493 | 22.22° C | 94% | 1018 hPa | 31.5 mm | - | - | - |
| 1787789193 | 22.22° C | 94% | 1017.9 hPa | 31.75 mm | - | - | - |
| 1787788893 | 22.22° C | 94% | 1017.9 hPa | 33.53 mm | - | - | - |
| 1787788593 | 22.22° C | 94% | 1018.1 hPa | 38.61 mm | - | - | - |
| 1787788293 | 22.22° C | 94% | 1018.1 hPa | 48.26 mm | - | - | - |
| 1787787993 | 22.22° C | 94% | 1017.9 hPa | 57.66 mm | - | - | - |
| 1787787693 | 22.22° C | 94% | 1017.8 hPa | 68.07 mm | - | - | - |
| 1787787393 | 22.22° C | 94% | 1017.6 hPa | 77.22 mm | - | - | - |
| 1787787093 | 22.22° C | 93% | 1017.3 hPa | 77.22 mm | - | - | - |
| 1787786793 | 22.22° C | 93% | 1017.1 hPa | 75.18 mm | - | - | - |
| 1787786493 | 22.22° C | 94% | 1017.1 hPa | 73.66 mm | - | - | - |
| 1787786193 | 22.22° C | 93% | 1017.5 hPa | 72.39 mm | - | - | - |
| 1787785893 | 22.22° C | 92% | 1017.5 hPa | 70.36 mm | - | - | - |
| 1787785593 | 22.22° C | 91% | 1017.7 hPa | 66.8 mm | - | - | - |
| 1787785293 | 22.78° C | 92% | 1017.8 hPa | 62.48 mm | - | - | - |
| 1787784993 | 23.33° C | 91% | 1017.7 hPa | 52.32 mm | - | - | - |
| 1787784693 | 23.33° C | 91% | 1018.1 hPa | 37.59 mm | - | - | - |
| 1787784453 | 23.89° C | 90% | 1017.9 hPa | 23.62 mm | - | - | - |
| 1787784393 | 23.89° C | 90% | 1017.9 hPa | 23.62 mm | - | - | - |
| 1787784093 | 24.44° C | 88% | 1017.8 hPa | 9.65 mm | - | - | - |
| 1787783793 | 25° C | 88% | 1016.9 hPa | 0.76 mm | - | - | - |
| 1787783493 | 25° C | 89% | 1016.5 hPa | 2.29 mm | - | - | - |
* Rain latest hour (hover to see other rain measurements)
** Current wind speed in m/s (hover to see current wind gust speed)